GFSCGP_sfc_30mbdewp_123.txt.gz
Dewpoint
34 26 23 20 22 23 22 22 22 27 31 29 28 32 36 38 38 38 39 41 41 43 45 46 47 48 62 63 62 63 63 63 61 63 63 64 63 64 62 55 51 47 43 40
22 20 19 18 19 21 21 24 25 31 34 31 29 33 36 38 39 39 40 41 44 44 45 46 47 49 47 61 61 62 63 64 62 62 60 64 64 64 62 52 48 45 40 38
18 20 19 19 19 19 22 24 25 30 34 32 29 31 34 37 38 40 41 43 45 45 45 46 47 49 51 59 60 61 62 62 62 61 60 62 62 61 55 49 47 43 39 41
19 18 18 18 20 21 20 25 24 27 31 27 27 24 33 33 35 39 43 45 44 45 46 47 48 49 50 54 61 61 61 60 60 61 61 60 61 58 55 50 48 46 44 42
14 17 17 18 20 21 22 25 25 27 30 30 26 26 32 35 35 37 44 45 45 46 47 48 50 51 52 54 59 60 59 60 59 56 56 61 59 55 53 50 47 48 49 47
19 20 20 19 20 23 26 28 34 33 32 29 25 27 28 34 36 40 44 44 45 47 49 50 52 53 54 61 61 60 60 58 58 57 57 57 56 55 54 51 48 48 50 50
20 18 22 21 21 26 25 27 17 22 23 23 30 27 32 35 39 44 44 45 46 48 48 50 53 53 59 58 59 59 60 58 57 57 56 57 57 58 56 54 53 49 49 50
17 14 19 14 25 23 23 28 23 4 21 24 31 25 31 37 44 45 44 45 46 47 48 50 53 56 57 59 59 58 57 57 57 57 57 56 56 54 54 53 53 52 50 50
17 16 18 15 21 25 22 21 32 31 32 30 29 31 34 36 41 41 43 45 45 46 47 48 50 53 57 57 57 57 57 56 55 55 55 54 54 53 53 53 53 53 53 50
19 12 16 19 22 28 24 30 25 32 20 18 21 20 21 33 37 40 42 43 45 46 47 48 48 50 53 53 54 55 55 54 53 53 54 54 54 54 53 54 53 54 54 53
18 15 15 15 19 21 24 24 23 24 27 20 21 21 29 35 38 40 41 42 44 45 46 47 47 49 50 51 50 50 51 51 50 50 50 51 51 51 52 52 52 52 51 51
20 20 18 15 21 21 20 17 15 17 19 20 21 22 35 36 39 41 41 40 43 46 45 45 44 45 45 46 46 44 42 42 44 44 42 42 43 45 47 49 50 50 49 48
23 21 16 15 21 20 16 19 11 13 17 21 17 17 35 37 39 40 42 40 41 43 43 41 38 41 42 40 39 40 39 37 36 36 35 34 35 36 38 42 48 49 48 48
24 22 20 16 18 20 13 13 11 11 10 17 13 21 31 37 38 39 40 38 40 36 38 39 37 39 41 42 39 37 33 32 32 31 31 30 30 30 30 30 30 31 32 32
24 22 24 23 21 16 13 13 14 11 10 10 15 17 24 34 38 39 39 38 39 37 35 34 34 31 32 32 32 31 31 30 30 30 30 29 29 29 29 29 29 29 29 29
23 17 18 16 18 18 16 16 16 14 12 10 10 11 22 33 39 39 39 38 36 35 34 32 31 30 30 30 30 29 30 30 30 30 30 30 29 29 29 28 28 27 27 28
19 18 20 16 19 17 16 16 17 17 17 13 9 19 32 37 38 38 40 39 37 35 33 32 31 30 29 29 29 29 29 30 30 29 29 29 29 28 28 29 29 29 28 29
19 18 21 17 19 15 20 21 21 20 20 20 22 26 29 32 36 38 39 40 37 36 34 32 31 30 29 29 29 28 29 29 29 29 28 27 27 28 29 29 29 30 30 29
21 20 18 14 20 21 21 21 18 19 17 22 21 26 28 30 30 35 39 39 38 36 35 32 31 30 29 28 28 28 28 28 27 27 26 27 29 30 30 30 29 29 28 26
21 21 19 19 15 12 21 23 22 21 14 21 23 24 28 30 27 28 38 38 37 36 35 32 30 29 28 28 27 27 27 27 26 25 26 29 31 31 31 30 29 28 26 25
18 18 17 17 20 23 27 23 21 13 14 21 24 24 30 28 29 29 34 38 37 36 34 32 30 29 28 28 28 27 27 26 26 27 29 30 31 30 29 28 25 24 23 23
18 16 16 19 18 14 25 20 15 18 24 20 23 25 30 30 31 32 33 37 36 35 33 31 30 29 29 28 28 27 27 28 27 28 29 29 29 29 27 24 23 23 24 23
18 20 18 18 19 25 22 20 21 26 22 23 24 27 30 31 30 32 33 35 35 34 33 32 30 30 29 29 28 28 28 28 27 28 27 27 25 23 23 21 22 23 23 23
24 25 23 22 22 26 22 27 22 29 23 25 26 27 31 31 30 32 33 34 34 33 33 32 31 30 28 29 29 29 29 28 27 27 27 25 22 17 20 22 23 23 23 23
24 25 24 23 26 28 26 26 25 28 30 28 29 29 28 30 32 31 33 34 34 33 33 32 31 30 29 29 30 30 29 28 27 27 26 24 22 18 21 23 23 24 25 22
25 23 22 20 24 25 27 29 29 28 27 29 29 31 31 30 31 32 32 34 35 34 33 32 32 31 30 29 31 30 30 28 27 26 25 23 19 19 21 22 21 26 26 28

GFSCGP_sfc_30mbdewp_129.txt.gz
Dewpoint
33 31 23 22 22 21 22 21 21 25 29 33 32 30 35 37 38 38 41 44 45 45 46 46 47 48 49 57 62 62 62 64 64 63 63 63 63 64 63 62 57 56 55 55
23 26 27 24 20 21 21 22 22 26 31 33 32 31 36 37 37 39 42 44 44 45 45 47 48 49 49 55 61 61 62 63 63 63 62 63 63 63 61 59 57 54 51 50
19 20 23 18 19 19 19 21 22 23 28 31 31 29 34 35 37 37 42 44 44 45 47 48 49 50 50 54 60 60 61 61 62 62 63 61 60 58 57 56 55 52 50 46
22 21 19 18 16 20 15 23 24 24 25 26 28 26 29 34 35 38 43 44 44 47 48 48 49 50 50 52 60 60 61 61 61 61 61 60 58 55 54 53 53 51 50 51
17 18 18 16 15 20 17 24 26 26 27 30 27 26 25 34 34 39 43 44 45 47 48 50 51 52 52 55 58 58 58 58 60 60 59 59 57 55 54 53 53 52 51 50
20 20 16 13 19 20 26 28 29 33 31 28 27 27 25 32 37 41 43 44 46 47 49 51 54 55 57 58 58 57 56 56 57 59 59 58 55 55 53 52 50 50 50 50
20 19 21 20 16 24 26 25 22 21 20 18 29 28 26 35 42 42 43 45 47 48 49 50 54 55 55 57 57 56 56 55 56 57 56 55 53 52 51 51 50 49 50 50
17 14 19 20 15 16 24 25 15 0 7 18 30 23 23 40 42 43 44 46 47 47 48 49 52 55 56 56 56 56 56 55 55 56 56 55 54 53 52 52 51 51 51 50
17 16 18 12 25 23 25 23 29 27 28 27 27 27 33 42 41 42 44 45 46 47 47 48 50 52 54 55 54 55 55 55 55 55 54 55 55 54 54 52 52 51 51 51
19 14 16 18 22 28 23 32 25 27 16 9 19 21 20 26 35 42 43 45 45 47 47 47 49 49 50 52 53 53 53 53 54 54 54 53 54 54 54 54 52 51 51 51
18 13 15 16 17 21 26 26 25 25 25 17 12 16 24 28 37 42 43 44 45 46 46 46 47 48 48 49 50 51 51 51 51 52 52 52 52 52 53 52 53 52 51 50
17 15 14 12 19 22 24 23 21 15 16 22 20 17 32 35 40 43 42 43 46 46 44 44 45 46 47 47 48 49 49 49 48 49 50 50 51 51 51 50 50 50 50 50
20 17 14 16 19 21 18 18 17 19 18 17 17 12 35 39 41 42 42 43 46 45 42 45 44 44 44 41 40 39 39 39 41 42 44 45 48 49 49 48 48 48 48 47
23 20 15 11 14 19 14 16 15 12 9 11 20 18 32 36 38 41 41 42 45 44 43 46 46 44 41 39 35 35 35 35 36 38 39 40 41 42 42 42 41 40 39 39
22 17 21 21 21 23 21 13 14 11 10 11 11 16 17 33 37 40 42 41 41 44 43 45 45 44 41 36 33 32 32 31 32 32 33 33 32 32 32 32 33 35 36 36
24 18 23 16 19 22 21 20 19 13 12 12 12 13 20 29 39 39 41 40 40 42 42 41 43 39 39 34 33 31 30 30 30 29 29 29 29 29 29 30 31 33 34 35
22 19 17 12 19 18 15 17 17 16 16 13 11 13 22 27 36 38 40 40 40 40 40 38 35 38 37 32 31 30 30 29 29 29 29 28 28 28 28 29 30 32 33 34
21 18 19 14 18 10 14 21 20 17 17 16 14 15 21 24 33 39 41 40 39 39 37 36 33 34 33 31 30 30 29 29 29 28 28 28 28 28 28 29 29 30 31 32
21 22 18 14 14 15 15 20 20 17 15 20 17 16 22 36 38 38 41 40 40 38 37 36 33 32 31 30 30 30 29 29 28 28 28 28 28 28 29 29 29 29 28 30
22 22 18 18 13 11 14 22 22 19 12 18 20 20 29 36 27 29 40 41 39 37 35 34 32 31 30 30 30 29 29 29 28 28 28 29 29 29 29 29 28 27 26 26
19 19 16 19 15 16 20 23 20 12 11 18 23 25 32 30 27 27 39 41 40 37 35 33 32 31 30 30 30 29 29 28 28 28 28 30 30 30 29 28 27 25 24 24
18 18 17 19 17 14 24 22 15 18 21 22 25 28 30 31 30 29 38 40 40 37 35 33 32 31 30 29 29 29 28 29 28 28 29 30 30 30 28 26 25 23 23 23
18 19 18 19 18 22 25 22 21 23 22 22 24 27 29 31 30 31 37 40 39 38 35 33 32 30 29 29 29 29 29 28 28 29 30 30 30 29 26 24 23 23 23 24
21 23 18 18 18 21 25 25 23 24 22 23 25 26 30 29 31 31 34 39 39 38 35 33 32 30 29 29 28 29 28 28 28 29 30 30 29 27 24 23 24 24 24 23
20 22 20 19 20 25 23 26 25 24 26 23 25 27 28 30 31 31 32 37 38 37 36 33 31 30 29 29 28 28 28 29 28 29 29 28 27 27 22 23 24 24 24 24
24 22 20 17 18 19 18 23 27 25 24 25 24 26 29 30 29 31 32 35 38 37 36 33 32 31 30 29 28 29 29 28 28 28 27 26 25 24 22 23 25 28 27 29

GFSCGP_sfc_30mbdewp_132.txt.gz
Dewpoint
33 30 26 24 23 19 20 21 20 22 26 32 32 32 32 37 38 38 41 43 44 44 45 46 47 49 49 51 61 62 61 60 62 62 61 60 60 63 64 63 61 60 60 58
25 24 27 27 22 22 21 20 20 23 28 31 32 31 33 37 37 39 42 43 43 44 47 48 49 50 50 51 59 61 62 61 62 62 61 61 60 63 60 59 58 58 59 59
21 19 25 25 19 19 19 20 19 21 26 30 29 28 32 35 36 38 43 44 43 46 47 48 48 50 51 51 58 60 62 62 63 63 62 61 60 59 57 56 55 54 54 52
21 22 20 19 17 19 15 21 22 24 24 24 29 26 27 33 34 38 42 41 46 46 48 49 51 51 51 52 59 60 61 60 61 63 61 61 59 57 55 54 54 54 53 52
21 19 19 18 17 20 14 24 27 26 25 29 28 26 25 32 31 39 42 43 45 47 49 51 53 54 56 57 58 58 58 59 60 61 61 59 57 56 56 54 53 53 53 52
21 20 17 15 20 20 27 29 28 31 31 27 28 26 25 28 34 40 42 44 46 48 49 52 54 55 55 57 56 56 56 57 59 59 58 57 56 54 53 53 53 52 52 52
20 19 20 20 17 25 25 25 17 14 23 17 29 28 26 31 41 42 42 45 47 48 49 51 53 55 56 56 56 56 55 55 57 56 55 55 55 54 53 52 51 50 50 49
17 15 19 22 11 16 24 22 13 -3 1 14 28 25 22 37 42 42 44 46 47 48 49 50 52 54 55 55 56 55 55 55 55 55 54 53 53 52 52 51 51 51 50 50
17 16 19 17 26 23 26 23 26 25 27 25 25 28 24 40 40 40 44 44 45 47 48 49 50 52 53 54 54 55 55 54 54 55 55 55 54 53 52 52 52 51 51 51
19 15 16 17 25 28 24 30 26 26 12 4 13 21 19 23 26 38 42 43 45 47 47 48 49 50 51 52 53 53 54 53 54 54 54 54 54 54 53 53 52 51 51 51
19 15 14 17 16 20 30 28 24 26 24 14 9 9 23 24 32 38 42 44 45 46 46 47 48 48 50 51 51 51 51 51 52 52 52 52 52 52 53 52 51 51 51 51
17 15 12 13 18 23 25 24 23 11 14 23 18 13 31 29 36 41 42 44 46 46 45 46 46 47 47 47 47 47 49 49 50 51 51 51 51 51 51 50 51 50 50 50
19 15 13 16 18 21 19 20 21 18 22 21 13 10 33 38 39 42 42 44 45 45 45 46 46 45 43 41 42 42 42 43 45 47 48 49 49 49 49 49 49 48 48 47
22 18 14 11 13 19 16 17 18 15 11 10 17 16 25 35 37 40 42 43 45 45 44 46 45 43 41 39 40 39 38 39 41 43 44 44 44 44 44 42 41 41 40 39
20 16 19 18 21 19 15 14 16 14 12 8 11 16 17 27 34 37 42 42 44 44 44 46 46 43 38 35 34 34 36 37 38 39 39 38 38 37 38 38 38 37 37 36
23 18 20 16 21 22 21 22 16 15 13 12 12 13 18 21 37 38 40 41 43 44 45 45 45 43 39 35 34 32 33 33 34 34 33 32 33 33 34 34 35 35 36 37
21 20 18 13 18 18 15 18 20 19 15 13 10 12 17 27 32 35 39 41 42 43 44 44 45 42 38 35 32 31 31 30 30 30 29 29 29 30 32 33 33 34 35 35
21 19 18 14 18 12 14 21 20 19 19 15 14 15 17 18 29 36 40 41 41 41 42 41 41 39 38 33 31 30 29 29 29 28 28 28 28 29 30 31 31 32 33 33
21 20 17 14 14 15 15 19 20 17 14 19 17 17 17 33 35 34 40 41 41 42 41 40 37 37 34 32 30 29 29 29 28 28 28 28 28 28 28 29 29 30 31 32
23 22 17 17 13 12 15 20 23 19 14 19 20 19 24 34 18 19 38 41 41 41 39 38 35 34 33 31 30 29 29 28 28 28 28 28 28 28 28 29 28 28 28 30
19 19 16 18 15 16 19 23 21 13 12 17 22 22 32 25 22 26 39 41 41 40 38 36 34 34 32 31 30 29 29 28 28 28 28 29 29 29 29 28 27 26 25 28
18 17 17 20 16 14 23 21 15 17 19 21 23 27 29 31 28 31 39 40 40 39 36 35 34 33 31 30 30 29 29 29 29 28 28 29 29 30 29 27 26 24 24 24
18 19 17 18 18 21 24 21 21 22 21 23 23 28 30 31 29 32 37 40 40 38 36 34 34 32 31 30 30 29 29 29 28 28 29 29 30 29 28 26 24 23 23 23
21 22 19 19 20 21 23 25 24 23 22 23 25 29 31 29 30 31 37 40 40 38 36 34 33 32 31 30 30 30 30 29 28 28 29 30 29 28 26 25 24 23 23 23
21 21 19 19 19 24 23 25 25 23 25 23 26 28 29 30 31 31 35 39 40 38 37 34 33 32 31 30 30 30 29 29 28 28 29 30 29 29 25 24 24 23 24 24
22 20 18 17 19 16 15 21 26 25 23 24 24 26 30 31 30 31 32 38 39 38 37 35 34 33 32 30 29 29 30 29 29 28 29 29 29 28 24 23 24 29 27 30

GFSCGP_sfc_30mbdewp_135.txt.gz
Dewpoint
33 30 26 26 26 18 19 20 20 22 24 31 31 32 32 36 38 38 42 43 43 42 45 48 49 50 50 51 53 59 57 60 61 61 60 60 59 61 63 63 63 62 61 57
27 26 27 28 24 22 21 20 20 22 26 31 30 30 33 36 38 42 43 42 41 45 47 48 48 49 50 51 55 59 59 60 61 61 61 60 60 61 61 61 61 61 61 55
24 21 26 26 21 19 20 19 19 18 25 30 30 29 30 36 37 40 42 43 45 46 48 48 49 52 52 53 57 60 60 60 61 61 62 61 60 59 57 56 56 57 60 58
24 24 22 23 20 19 16 20 21 23 23 22 29 24 29 34 34 40 42 43 46 47 50 50 52 54 55 57 60 60 61 62 62 62 61 60 59 57 56 55 54 55 55 55
20 20 20 19 18 19 16 25 27 27 25 28 28 27 26 31 31 39 41 44 46 48 50 52 53 52 55 56 57 58 59 59 61 62 61 61 59 57 56 55 55 55 55 53
22 21 20 19 20 21 29 29 27 31 31 27 28 26 24 27 33 40 41 45 47 49 51 52 53 54 56 56 56 56 57 58 59 59 60 59 57 56 55 55 55 54 53 54
21 20 19 19 20 26 26 24 14 15 25 19 29 28 26 30 40 42 42 45 47 48 50 52 53 52 55 56 55 55 56 56 56 56 56 56 56 55 54 54 53 52 52 52
17 14 19 21 12 17 24 22 13 -3 1 12 28 24 24 36 41 42 45 46 46 48 50 51 53 54 55 55 55 55 55 55 55 55 55 55 55 54 53 53 52 51 51 51
17 16 19 19 25 23 26 23 24 23 27 24 23 27 27 41 41 42 44 45 45 47 48 49 51 53 54 54 54 55 54 54 55 55 54 54 54 53 52 52 52 51 51 51
18 15 16 23 27 31 25 29 25 26 8 4 10 17 17 26 32 41 43 43 45 47 47 49 49 50 52 53 53 54 53 53 54 54 54 54 53 53 53 53 52 51 51 51
20 16 15 17 16 23 29 29 23 26 22 9 4 5 23 23 31 40 43 44 45 46 46 47 48 49 50 51 51 51 52 52 52 53 53 53 53 53 52 52 52 51 51 51
18 16 14 15 17 22 29 27 23 11 14 23 17 10 27 25 35 41 42 44 46 46 46 46 47 48 47 47 47 48 49 49 50 51 51 51 52 52 51 51 50 51 51 51
19 16 14 13 17 21 22 23 22 19 25 21 13 7 29 35 38 42 42 44 46 45 46 47 47 45 44 44 45 44 46 47 48 50 50 50 49 49 49 50 50 49 49 49
21 16 15 12 13 19 17 20 21 17 14 11 18 12 19 32 36 40 42 44 46 45 46 47 46 44 43 43 42 42 42 44 45 46 46 46 46 45 44 44 43 42 42 40
20 16 17 16 19 18 16 17 20 18 14 9 10 14 15 24 32 37 42 44 45 45 46 47 46 42 40 40 40 39 40 42 43 44 43 41 40 41 40 40 39 38 37 36
22 17 19 17 20 21 19 16 18 18 15 13 12 13 19 20 33 37 41 43 45 45 45 47 46 42 38 37 37 38 39 40 41 41 40 39 39 39 38 38 37 36 36 36
20 21 17 13 18 20 17 20 18 17 16 15 13 14 16 22 28 32 39 42 44 45 45 46 46 44 38 36 35 37 36 35 35 35 36 37 38 37 36 35 36 36 36 36
21 20 18 15 17 12 15 20 22 20 19 16 15 15 16 17 25 33 38 41 43 44 46 46 45 44 39 35 33 32 31 31 31 30 30 32 33 33 33 34 34 34 34 34
22 19 16 15 15 15 16 18 20 19 16 21 18 17 18 28 30 29 38 41 42 44 45 46 46 43 39 35 32 31 30 30 29 29 29 30 31 31 32 32 32 33 33 33
22 22 17 17 14 12 15 18 23 19 14 19 21 20 21 29 16 18 33 40 42 43 44 43 42 40 37 34 31 30 29 29 29 29 29 29 29 30 30 31 31 31 32 32
20 19 17 18 14 16 19 23 22 14 13 18 22 22 27 21 20 23 33 40 42 42 41 41 39 39 38 32 31 30 29 29 29 29 29 29 29 29 29 29 28 29 31 30
19 18 17 19 15 12 22 22 17 19 19 21 23 25 27 28 25 31 37 40 41 40 39 39 38 37 35 32 30 30 29 29 29 29 29 29 29 29 29 28 27 27 28 26
19 20 18 19 18 22 24 22 21 22 20 23 23 29 31 28 26 35 38 40 40 39 39 37 37 36 33 32 31 30 30 30 29 29 29 29 30 29 28 27 26 25 25 25
21 22 20 19 20 20 22 24 23 22 22 24 26 29 32 27 28 32 38 40 40 39 37 37 36 35 33 32 31 31 31 30 29 28 29 30 29 29 28 27 26 25 24 24
21 21 20 19 19 23 23 24 24 23 24 25 27 30 31 30 30 31 36 40 40 39 37 36 36 35 34 32 31 31 31 30 29 28 29 29 30 29 27 26 26 25 25 25
22 20 19 17 19 18 18 22 25 25 23 24 25 29 32 31 30 32 35 39 40 39 37 36 35 35 34 32 32 31 31 30 29 28 29 29 30 29 27 26 26 28 27 30

GFSCGP_sfc_30mbdewp_138.txt.gz
Dewpoint
34 29 24 23 26 25 21 19 18 16 21 23 23 28 29 32 36 37 38 39 39 40 44 45 46 47 48 50 50 50 52 56 60 61 58 58 60 60 63 63 62 63 62 60
28 25 25 28 27 24 22 19 18 18 23 28 24 25 27 33 36 38 39 39 41 44 44 47 47 48 49 49 51 55 57 57 60 60 58 60 59 61 62 63 63 63 61 58
23 23 25 27 25 24 22 18 17 15 21 25 28 26 30 36 38 38 39 41 44 47 48 50 50 51 53 54 57 58 58 58 61 60 60 61 60 59 58 60 62 62 59 57
26 25 24 24 23 22 18 20 20 19 22 16 28 15 28 31 33 36 39 41 45 48 50 52 52 53 54 58 58 60 60 60 61 61 60 60 59 57 57 57 57 60 60 56
23 23 23 24 23 22 19 25 24 25 24 26 26 24 23 31 30 32 39 43 47 49 50 52 52 53 55 56 57 59 60 60 62 62 60 60 59 57 56 56 56 57 57 57
22 22 22 21 21 21 29 28 30 31 28 23 24 25 17 25 28 35 39 44 47 48 50 52 53 54 56 56 57 58 59 59 60 61 62 60 58 57 56 56 55 56 56 55
22 22 21 21 22 26 25 20 17 20 26 19 29 27 22 28 36 39 40 44 46 48 50 52 52 53 54 55 56 56 57 57 58 58 59 59 58 57 56 56 55 54 54 55
20 18 22 20 18 18 20 16 21 11 14 20 27 24 24 31 38 43 44 45 46 48 50 50 52 54 55 55 55 54 56 56 57 56 56 56 56 55 55 54 54 53 53 53
17 18 21 21 20 19 24 18 22 24 27 22 25 25 32 38 38 41 43 45 46 47 49 50 51 53 54 55 55 54 54 55 55 55 55 55 54 54 54 53 53 52 52 52
19 17 18 26 25 29 25 25 20 23 20 12 10 12 11 33 34 37 43 43 45 47 48 49 50 51 53 53 54 54 54 54 55 55 55 54 54 54 53 52 51 51 51 51
20 18 17 23 20 19 25 21 23 24 21 9 5 5 19 25 29 33 42 43 45 47 48 49 49 50 51 51 52 52 53 53 53 54 54 54 54 54 53 52 51 51 51 50
23 18 15 16 18 20 21 18 19 9 17 19 16 10 23 23 27 37 42 44 45 47 48 48 49 49 49 49 49 50 51 51 52 52 53 52 52 52 52 51 52 51 51 50
21 17 14 15 18 22 20 22 21 17 21 16 11 11 27 29 32 40 42 44 45 47 48 47 48 47 47 47 47 48 50 50 51 51 50 51 50 50 50 50 51 51 50 50
23 19 14 12 14 17 17 19 21 17 13 11 14 13 26 30 33 40 42 44 45 46 48 48 46 46 46 46 45 46 47 48 49 49 49 47 46 46 46 45 46 47 47 46
22 18 17 17 18 19 18 19 21 17 15 12 12 16 14 28 32 37 43 44 45 45 48 48 47 46 46 44 43 44 46 47 48 46 45 43 43 43 42 42 41 40 39 38
23 18 19 16 19 18 17 18 20 18 17 16 14 13 17 18 31 35 41 44 45 45 47 48 48 46 47 47 46 43 44 46 47 44 43 43 43 43 43 43 42 40 39 38
22 20 19 15 19 20 17 20 18 20 20 18 16 17 17 21 28 33 38 44 45 45 46 47 48 46 44 43 45 46 45 45 46 46 45 45 44 43 42 40 39 38 36 35
23 21 21 16 18 13 16 21 20 18 19 20 18 19 20 20 25 31 37 41 44 45 46 47 48 46 42 40 43 43 41 40 41 42 42 42 41 40 39 38 37 35 35 35
26 22 19 17 16 15 18 20 21 20 19 21 20 19 19 24 27 28 34 39 42 45 46 47 47 46 41 39 41 39 37 35 34 35 36 37 36 35 35 34 33 33 33 32
24 24 21 18 17 14 16 20 23 23 15 20 23 21 19 26 18 18 32 38 40 45 46 47 48 46 42 40 39 36 34 33 31 30 31 31 31 32 33 33 32 31 30 30
22 21 20 19 18 19 21 23 24 14 15 24 24 23 22 23 21 24 32 36 40 44 46 47 48 46 46 42 38 35 33 32 31 29 29 30 30 31 31 30 30 30 29 29
21 20 20 20 18 16 25 24 17 18 24 25 26 25 26 26 29 30 32 37 40 43 46 47 48 46 46 41 38 35 33 32 30 29 29 29 28 27 29 29 29 29 29 27
21 21 20 20 20 25 25 24 25 26 25 26 27 27 29 28 28 34 35 38 41 42 44 45 46 47 45 41 39 36 34 32 30 29 29 28 27 27 28 28 28 28 27 25
24 24 22 21 22 22 24 26 26 25 25 27 28 30 30 28 30 36 37 38 39 41 43 44 45 44 43 40 38 36 34 31 30 29 28 27 27 27 27 27 27 27 26 24
24 23 21 21 22 24 24 25 26 26 26 27 30 31 31 29 32 36 37 38 39 40 42 43 43 42 42 40 38 36 33 31 30 28 28 27 27 28 27 27 27 27 25 25
22 21 21 20 21 21 21 24 27 26 25 27 28 31 33 31 33 36 37 38 39 40 40 41 42 41 41 39 37 35 34 32 30 28 28 27 27 29 27 28 27 29 27 29